New Rooks County (RCP)
Stockton, KS
Field Elevation: 1999
Lat: 39°20.80N  Long: 99°18.28W
CTAF/Unicom Freq: 122.9000
   
    
Weather Advisories
3/5/2015 07:55 Z
Altimeter 30.41" Hg
Wind 050° @ 6 KT
Gusts --
Visibility 10 SM
Temperature -10° C (14° F)
Dewpoint -15° C (5° F)
Relative Humidity 67%
Density Altitude --
Condensation Altitude 4,500 feet
Wind Chill -16° C (3° F)
  Wind and Runways
Indicated Runway = 36
History
 
 
More Info
All DigiWx sites map
NOAA Forecast
 
Airport IQ 5010
(FLV) Sherman Airfield
(K68) Garnett Municipal Airport
 
about DigiWx
 
FAA Disclaimer: The data displayed is for advisory purposes only and is not to be used for flight planning or operations. For official data, please call (not available) to hear the current automated AWOS voice message.
  METAR RCP 050755Z AUTO 05006KT 10SM M10/M15 A3041